Weather observations for the past three days for
Salida - Monarch Pass
| Date | Time (mdt) | Wind (mph) | Vis. (mi.) | Weather | Sky Cond. | Temperature (ºF) | Relative Humidity | Wind Chill (°F) | Heat Index (°F) | Pressure | Precipitation (in) | ||||||
|---|---|---|---|---|---|---|---|---|---|---|---|---|---|---|---|---|---|
| Air | Dwpt | 6 hour | altimeter (in) | sea level (mb) | 1 hr | 3 hr | 6 hr | ||||||||||
| Max. | Min. | ||||||||||||||||
| 02 | 23:15 | W 18 | 10.00 | Fair | CLR | 32 | 17.6 | 55% | 21 | 30.48 | 0.0 | ||||||
| 02 | 22:55 | W 18 | 10.00 | Fair | CLR | 32 | 19.4 | 60% | 21 | 30.48 | 0.0 | ||||||
| 02 | 22:35 | W 20 | 10.00 | Fair | CLR | 32 | 19.4 | 60% | 21 | 30.48 | 0.0 | ||||||
| 02 | 22:15 | W 20 | 10.00 | Fair | CLR | 32 | 19.4 | 60% | 21 | 30.48 | 0.0 | ||||||
| 02 | 21:55 | W 20 G 25 | 10.00 | Fair | CLR | 32 | 19.4 | 60% | 21 | 30.48 | 0.0 | ||||||
| 02 | 21:35 | W 16 | 10.00 | Fair | CLR | 32 | 19.4 | 60% | 22 | 30.48 | 0.0 | ||||||
| 02 | 21:15 | W 17 | 10.00 | Fair | CLR | 32 | 19.4 | 60% | 22 | 30.48 | 0.0 | ||||||
| 02 | 20:55 | W 17 | 10.00 | Fair | CLR | 33.8 | 19.4 | 56% | 24 | 30.48 | 0.0 | ||||||
| 02 | 20:35 | SW 17 | 10.00 | Fair | CLR | 33.8 | 17.6 | 51% | 24 | 30.47 | 0.0 | ||||||
| 02 | 20:15 | SW 18 | 10.00 | Fair | CLR | 33.8 | 19.4 | 56% | 24 | 30.47 | 0.0 | ||||||
| 02 | 19:55 | SW 14 | 10.00 | Fair | CLR | 35.6 | 19.4 | 52% | 27 | 30.46 | 0.0 | ||||||
| 02 | 19:35 | SW 14 | 10.00 | Partly Cloudy | SCT075 | 35.6 | 19.4 | 52% | 27 | 30.46 | 0.0 | ||||||
| 02 | 19:15 | SW 13 | 10.00 | Mostly Cloudy | BKN075 | 35.6 | 21.2 | 56% | 28 | 30.46 | 0.0 | ||||||
| 02 | 18:55 | SW 21 G 26 | 10.00 | Overcast and Breezy | OVC075 | 37.4 | 19.4 | 48% | 28 | 30.46 | 0.0 | ||||||
| 02 | 18:35 | SW 13 G 23 | 10.00 | Overcast | BKN075 OVC085 | 41 | 19.4 | 42% | 34 | 30.46 | 0.0 | ||||||
| 02 | 17:55 | SW 14 G 21 | 10.00 | Overcast | OVC075 | 41 | 14 | 33% | 34 | 30.46 | 0.0 | ||||||
| 02 | 17:35 | SW 13 G 18 | 10.00 | Overcast | OVC075 | 42.8 | 12.2 | 29% | 37 | 30.46 | 0.0 | ||||||
| 02 | 17:15 | SE 3 | 10.00 | Overcast | OVC075 | 41 | 12.2 | 31% | 30.46 | 0.0 | |||||||
| 02 | 16:55 | NW 10 G 16 | 10.00 | Mostly Cloudy | BKN075 | 44.6 | 14 | 29% | 40 | 30.46 | 0.0 | ||||||
| 02 | 16:35 | Calm | 10.00 | Fair | CLR | 41 | 8.6 | 26% | 30.46 | 0.0 | |||||||
| 02 | 16:15 | SW 8 | 10.00 | Partly Cloudy | SCT047 | 42.8 | 14 | 31% | 39 | 30.47 | 0.0 | ||||||
| 02 | 15:55 | W 7 | 10.00 | Mostly Cloudy | SCT047 BKN055 BKN065 | 39.2 | 10.4 | 30% | 35 | 30.47 | 0.0 | ||||||
| 02 | 15:35 | NW 13 G 16 | 10.00 | Overcast | OVC065 | 42.8 | 14 | 31% | 37 | 30.48 | 0.0 | ||||||
| 02 | 15:15 | S 6 | 10.00 | Overcast | BKN065 OVC080 | 41 | 12.2 | 31% | 38 | 30.48 | 0.0 | ||||||
| 02 | 14:55 | N 5 | 10.00 | Overcast | BKN065 OVC080 | 41 | 12.2 | 31% | 38 | 30.49 | 0.0 | ||||||
| 02 | 14:35 | S 3 | 10.00 | Mostly Cloudy | BKN065 | 41 | 14 | 33% | 30.49 | 0.0 | |||||||
| 02 | 14:15 | SW 15 G 20 | 10.00 | Partly Cloudy | SCT065 | 41 | 14 | 33% | 34 | 30.49 | 0.0 | ||||||
| 02 | 13:55 | NW 6 | 10.00 | Mostly Cloudy | BKN065 | 41 | 17.6 | 39% | 38 | 30.5 | 0.0 | ||||||
| 02 | 13:35 | W 12 G 18 | 10.00 | Partly Cloudy | SCT065 | 41 | 17.6 | 39% | 35 | 30.49 | 0.0 | ||||||
| 02 | 13:15 | NW 9 | 10.00 | Partly Cloudy | SCT050 | 35.6 | 14 | 41% | 29 | 30.5 | 0.0 | ||||||
| 02 | 12:55 | W 12 | 10.00 | Partly Cloudy | SCT055 | 37.4 | 17.6 | 45% | 30 | 30.5 | 0.0 | ||||||
| 02 | 12:35 | W 10 | 10.00 | Fair | CLR | 33.8 | 14 | 44% | 26 | 30.5 | 0.0 | ||||||
| 02 | 12:15 | N 5 | 10.00 | Fair | CLR | 33.8 | 12.2 | 41% | 30 | 30.51 | 0.0 | ||||||
| 02 | 11:55 | NW 8 | 10.00 | Fair | CLR | 33.8 | 14 | 44% | 28 | 30.51 | 0.0 | ||||||
| 02 | 11:35 | N 3 | 10.00 | Fair | CLR | 32 | 14 | 47% | 30.51 | 0.0 | |||||||
| 02 | 11:15 | N 5 | 10.00 | Fair | CLR | 32 | 14 | 47% | 28 | 30.51 | 0.0 | ||||||
| 02 | 10:55 | NW 3 | 10.00 | Fair | CLR | 32 | 14 | 47% | 30.51 | 0.0 | |||||||
| 02 | 10:35 | NW 3 | 10.00 | Fair | CLR | 30.2 | 14 | 51% | 30.51 | 0.0 | |||||||
| 02 | 10:15 | W 6 | 10.00 | Fair | CLR | 30.2 | 14 | 51% | 25 | 30.5 | 0.0 | ||||||
| 02 | 09:55 | W 5 | 10.00 | Fair | CLR | 30.2 | 15.8 | 55% | 26 | 30.5 | 0.0 | ||||||
| 02 | 09:35 | NW 6 G 10 | 10.00 | Fair | CLR | 28.4 | 15.8 | 59% | 23 | 30.5 | 0.0 | ||||||
| 02 | 09:15 | W 10 | 10.00 | Fair | CLR | 28.4 | 17.6 | 64% | 20 | 30.49 | 0.0 | ||||||
| 02 | 08:55 | W 10 | 10.00 | Fair | CLR | 28.4 | 15.8 | 59% | 20 | 30.48 | 0.0 | ||||||
| 02 | 08:35 | SW 10 | 10.00 | Fair | CLR | 26.6 | 15.8 | 64% | 18 | 30.48 | 0.0 | ||||||
| 02 | 08:15 | W 10 | 10.00 | Fair | CLR | 26.6 | 15.8 | 64% | 18 | 30.48 | 0.0 | ||||||
| 02 | 07:55 | W 9 | 10.00 | Fair | CLR | 24.8 | 15.8 | 69% | 16 | 30.47 | 0.0 | ||||||
| 02 | 07:35 | W 8 | 10.00 | Fair | CLR | 23 | 15.8 | 74% | 15 | 30.47 | 0.0 | ||||||
| 02 | 07:15 | W 8 | 10.00 | Fair | CLR | 23 | 14 | 68% | 15 | 30.46 | 0.0 | ||||||
| 02 | 06:55 | W 9 | 10.00 | Fair | CLR | 23 | 14 | 68% | 14 | 30.46 | 0.0 | ||||||
| 02 | 06:35 | W 9 | 10.00 | Fair | CLR | 23 | 14 | 68% | 14 | 30.45 | 0.0 | ||||||
| 02 | 06:15 | W 8 | 10.00 | Fair | CLR | 23 | 12.2 | 63% | 15 | 30.45 | 0.0 | ||||||
| 02 | 05:55 | W 8 | 10.00 | Fair | CLR | 23 | 12.2 | 63% | 15 | 30.45 | 0.0 | ||||||
| 02 | 05:35 | SW 5 | 10.00 | Fair | CLR | 24.8 | 10.4 | 54% | 20 | 30.45 | 0.0 | ||||||
| 02 | 05:15 | Calm | 10.00 | Fair | CLR | 24.8 | 10.4 | 54% | 30.45 | 0.0 | |||||||
| 02 | 04:55 | E 6 | 0.00 | Fair | CLR | 23 | 12.2 | 63% | 17 | 30.45 | 0.0 | ||||||
| 02 | 04:35 | E 7 | 0.00 | Fair | CLR | 23 | 12.2 | 63% | 16 | 30.45 | 0.0 | ||||||
| 02 | 04:15 | E 7 | 0.00 | Fair | CLR | 23 | 12.2 | 63% | 16 | 30.45 | 0.0 | ||||||
| 02 | 03:55 | E 9 | 0.00 | Fair | CLR | 23 | 14 | 68% | 14 | 30.44 | 0.0 | ||||||
| 02 | 03:35 | E 8 | 0.00 | Fair | CLR | 23 | 14 | 68% | 15 | 30.44 | 0.0 | ||||||
| 02 | 03:15 | E 7 | 0.00 | Fair | CLR | 23 | 14 | 68% | 16 | 30.44 | 0.0 | ||||||
| 02 | 02:55 | E 6 | 0.00 | Fair | CLR | 23 | 14 | 68% | 17 | 30.44 | 0.0 | ||||||
| 02 | 02:35 | S 5 | 0.00 | NULL | NULL | 23 | 19.4 | 86% | 18 | 30.44 | 0.0 | ||||||
| 02 | 02:15 | SW 5 | 0.00 | NULL | NULL | 21.2 | 21.2 | 100% | 16 | 30.45 | 0.0 | ||||||
| 02 | 01:55 | S 5 | 0.00 | NULL | NULL | 21.2 | 21.2 | 100% | 16 | 30.45 | 0.0 | ||||||
| 02 | 01:35 | E 6 | 0.00 | NULL | NULL | 23 | 21.2 | 93% | 17 | 30.45 | 0.0 | ||||||
| 02 | 01:15 | E 9 | 0.00 | NULL | NULL | 23 | 21.2 | 93% | 14 | 30.45 | 0.0 | ||||||
| 02 | 00:55 | E 15 | 0.00 | Overcast | BKN005 BKN010 OVC050 | 23 | 23 | 100% | 11 | 30.43 | 0.0 | ||||||
| 02 | 00:35 | E 14 | 0.00 | NULL | NULL | 23 | 23 | 100% | 11 | 30.43 | 0.0 | ||||||
| 02 | 00:16 | E 13 | 0.00 | Mostly Cloudy | BKN002 BKN050 | 23 | 23 | 100% | 12 | 30.43 | 0.0 | ||||||
| 01 | 23:55 | E 15 | 0.00 | Overcast | BKN002 OVC050 | 23 | 23 | 100% | 11 | 30.43 | 0.0 | ||||||
| 01 | 23:35 | E 18 | 0.00 | Overcast | BKN002 BKN006 OVC050 | 23 | 23 | 100% | 10 | 30.42 | 0.0 | ||||||
| 01 | 23:16 | E 18 | 0.00 | Overcast | OVC002 | 23 | 23 | 100% | 10 | 30.42 | 0.0 | ||||||
| 01 | 22:55 | E 21 | 0.00 | Overcast and Breezy | OVC001 | 23 | 23 | 100% | 9 | 30.41 | 0.0 | ||||||
| 01 | 22:35 | E 24 | 0.00 | Overcast and Breezy | BKN003 BKN006 OVC015 | 24.8 | 23 | 93% | 10 | 30.41 | 0.0 | ||||||
| 01 | 22:15 | E 23 | 0.00 | Breezy | NULL | 24.8 | 23 | 93% | 11 | 30.41 | 0.0 | ||||||
| 01 | 21:55 | E 23 | 0.00 | Overcast and Breezy | BKN007 BKN014 OVC018 | 24.8 | 23 | 93% | 11 | 30.41 | 0.0 | ||||||
| 01 | 21:35 | E 24 | 0.00 | Breezy | NULL | 24.8 | 23 | 93% | 10 | 30.39 | 0.0 | ||||||
| 01 | 21:15 | E 25 | 0.00 | Breezy | NULL | 24.8 | 23 | 93% | 10 | 30.39 | 0.0 | ||||||
| 01 | 20:55 | E 26 G 32 | 0.00 | Windy | NULL | 26.6 | 23 | 86% | 12 | 30.37 | 0.0 | ||||||
| 01 | 20:35 | E 25 | 0.00 | Breezy | NULL | 26.6 | 21.2 | 80% | 12 | 30.36 | 0.0 | ||||||
| 01 | 20:15 | E 28 | 0.00 | Mostly Cloudy and Windy | SCT022 BKN031 BKN036 | 26.6 | 19.4 | 74% | 12 | 30.36 | 0.0 | ||||||
| 01 | 19:55 | E 23 | 0.00 | Mostly Cloudy and Breezy | SCT022 BKN032 BKN042 | 26.6 | 21.2 | 80% | 13 | 30.36 | 0.0 | ||||||
| 01 | 19:15 | E 29 G 38 | 0.00 | Partly Cloudy and Windy | SCT034 | 28.4 | 19.4 | 69% | 14 | 30.32 | 0.0 | ||||||
| 01 | 18:55 | E 31 | 0.00 | Fair and Windy | CLR | 28.4 | 17.6 | 64% | 13 | 30.31 | 0.0 | ||||||
| 01 | 18:35 | E 32 | 0.00 | Fair and Windy | CLR | 28.4 | 15.8 | 59% | 13 | 30.3 | 0.0 | ||||||
| 01 | 18:15 | E 25 G 31 | 0.00 | Fair and Breezy | CLR | 28.4 | 14 | 55% | 15 | 30.32 | 0.0 | ||||||
| 01 | 17:55 | E 25 G 29 | 0.00 | Fair and Breezy | CLR | 28.4 | 14 | 55% | 15 | 30.32 | 0.0 | ||||||
| 01 | 17:35 | E 25 G 32 | 0.00 | Fair and Breezy | CLR | 28.4 | 14 | 55% | 15 | 30.31 | 0.0 | ||||||
| 01 | 17:15 | E 25 | 0.00 | Fair and Breezy | CLR | 28.4 | 15.8 | 59% | 15 | 30.31 | 0.0 | ||||||
| 01 | 16:55 | E 24 G 33 | 0.00 | Fair and Breezy | CLR | 28.4 | 19.4 | 69% | 15 | 30.31 | 0.0 | ||||||
| 01 | 16:35 | E 22 | 0.00 | Fair and Breezy | CLR | 28.4 | 19.4 | 69% | 16 | 30.31 | 0.0 | ||||||
| 01 | 16:15 | E 24 | 0.00 | Breezy | NULL | 26.6 | 24.8 | 93% | 13 | 30.31 | 0.0 | ||||||
| 01 | 15:55 | E 21 | 0.00 | Breezy | NULL | 26.6 | 24.8 | 93% | 14 | 30.31 | 0.0 | ||||||
| 01 | 15:35 | E 23 | 0.00 | Breezy | NULL | 26.6 | 24.8 | 93% | 13 | 30.31 | 0.0 | ||||||
| 01 | 15:15 | E 24 | 0.00 | Breezy | NULL | 26.6 | 26.6 | 100% | 13 | 30.32 | 0.0 | ||||||
| 01 | 14:55 | E 21 | 0.00 | Breezy | NULL | 26.6 | 26.6 | 100% | 14 | 30.32 | 0.0 | ||||||
| 01 | 14:35 | E 22 | 0.00 | Breezy | NULL | 26.6 | 26.6 | 100% | 13 | 30.32 | 0.0 | ||||||
| 01 | 14:15 | E 23 | 0.00 | Breezy | NULL | 26.6 | 26.6 | 100% | 13 | 30.32 | 0.0 | ||||||
| 01 | 13:55 | Calm | 0.00 | NULL | NULL | 24.8 | 24.8 | 100% | 30.32 | 0.0 | |||||||
| 01 | 13:35 | Calm | 0.00 | NULL | NULL | 26.6 | 26.6 | 100% | 30.31 | 0.0 | |||||||
| 01 | 13:15 | Calm | 0.00 | NULL | NULL | 24.8 | 24.8 | 100% | 30.31 | 0.0 | |||||||
| 01 | 12:55 | Calm | 0.00 | NULL | NULL | 24.8 | 24.8 | 100% | 30.31 | 0.0 | |||||||
| 01 | 12:35 | Calm | 0.00 | NULL | NULL | 24.8 | 24.8 | 100% | 30.31 | 0.0 | |||||||
| 01 | 12:15 | Calm | 0.00 | NULL | NULL | 23 | 23 | 100% | 30.31 | 0.0 | |||||||
| 01 | 11:55 | Calm | 0.00 | NULL | NULL | 24.8 | 23 | 93% | 30.32 | 0.0 | |||||||
| 01 | 11:36 | Calm | 0.00 | Overcast | BKN002 OVC006 | 24.8 | 23 | 93% | 30.32 | 0.0 | |||||||
| 01 | 11:15 | Calm | 0.00 | Overcast | BKN002 OVC006 | 23 | 23 | 100% | 30.32 | 0.0 | |||||||
| 01 | 10:55 | Calm | 0.00 | Overcast | BKN002 OVC006 | 23 | 23 | 100% | 30.31 | 0.0 | |||||||
| 01 | 10:35 | Calm | 0.00 | Overcast | BKN002 OVC005 | 23 | 23 | 100% | 30.31 | 0.0 | |||||||
| 01 | 10:15 | Calm | 0.00 | Overcast | OVC002 | 23 | 23 | 100% | 30.31 | 0.0 | |||||||
| 01 | 09:55 | Calm | 0.00 | Overcast | OVC002 | 23 | 23 | 100% | 30.3 | 0.0 | |||||||
| 01 | 09:35 | Calm | 0.00 | Overcast | OVC002 | 23 | 23 | 100% | 30.3 | 0.0 | |||||||
| 01 | 09:15 | Calm | 0.00 | Overcast | OVC002 | 23 | 21.2 | 93% | 30.3 | 0.0 | |||||||
| 01 | 08:55 | Calm | 0.00 | Overcast | BKN002 OVC005 | 21.2 | 21.2 | 100% | 30.29 | 0.0 | |||||||
| 01 | 08:35 | Calm | 0.00 | Overcast | OVC002 | 21.2 | 19.4 | 93% | 30.28 | 0.0 | |||||||
| 01 | 08:15 | Calm | 0.00 | Overcast | OVC002 | 21.2 | 19.4 | 93% | 30.28 | 0.0 | |||||||
| 01 | 07:55 | Calm | 0.00 | Overcast | OVC002 | 21.2 | 19.4 | 93% | 30.28 | 0.0 | |||||||
| 01 | 07:35 | Calm | 0.00 | Overcast | OVC002 | 19.4 | 19.4 | 100% | 30.27 | 0.0 | |||||||
| 01 | 07:15 | Calm | 0.00 | Overcast | OVC002 | 19.4 | 19.4 | 100% | 30.27 | 0.0 | |||||||
| 01 | 06:55 | Calm | 0.00 | Overcast | OVC002 | 19.4 | 17.6 | 93% | 30.27 | 0.0 | |||||||
| 01 | 06:35 | Calm | 0.00 | Overcast | OVC002 | 19.4 | 17.6 | 93% | 30.26 | 0.0 | |||||||
| 01 | 06:15 | Calm | 0.00 | Overcast | OVC002 | 19.4 | 19.4 | 100% | 30.26 | 0.0 | |||||||
| 01 | 05:55 | Calm | 0.00 | Overcast | OVC002 | 19.4 | 19.4 | 100% | 30.25 | 0.0 | |||||||
| 01 | 05:35 | Calm | 0.00 | Overcast | OVC002 | 19.4 | 19.4 | 100% | 30.25 | 0.0 | |||||||
| 01 | 05:15 | Calm | 0.00 | Overcast | OVC002 | 19.4 | 19.4 | 100% | 30.25 | 0.0 | |||||||
| 01 | 04:55 | Calm | 0.00 | Overcast | OVC002 | 19.4 | 19.4 | 100% | 30.25 | 0.0 | |||||||
| 01 | 04:35 | Calm | 0.00 | Overcast | OVC002 | 19.4 | 19.4 | 100% | 30.25 | 0.0 | |||||||
| 01 | 04:15 | Calm | 0.00 | Overcast | OVC002 | 19.4 | 19.4 | 100% | 30.25 | 0.0 | |||||||
| 01 | 03:55 | Calm | 0.00 | Overcast | OVC002 | 21.2 | 19.4 | 93% | 30.25 | 0.0 | |||||||
| 01 | 03:35 | Calm | 0.00 | Overcast | OVC002 | 19.4 | 19.4 | 100% | 30.25 | 0.0 | |||||||
| 01 | 03:15 | E 23 | 0.00 | Overcast and Breezy | OVC002 | 21.2 | 19.4 | 93% | 6 | 30.25 | 0.0 | ||||||
| 01 | 02:55 | E 24 | 0.00 | Overcast and Breezy | OVC002 | 21.2 | 19.4 | 93% | 5 | 30.25 | 0.0 | ||||||
| 01 | 02:35 | E 23 | 0.00 | Overcast and Breezy | OVC002 | 21.2 | 19.4 | 93% | 6 | 30.25 | 0.0 | ||||||
| 01 | 02:15 | E 21 | 0.00 | Overcast and Breezy | OVC002 | 21.2 | 19.4 | 93% | 7 | 30.26 | 0.0 | ||||||
| 01 | 01:55 | E 22 | 0.00 | Overcast and Breezy | OVC002 | 21.2 | 19.4 | 93% | 6 | 30.26 | 0.0 | ||||||
| 01 | 01:35 | E 22 | 0.00 | Overcast and Breezy | OVC002 | 21.2 | 19.4 | 93% | 6 | 30.26 | 0.0 | ||||||
| 01 | 01:15 | Calm | 0.00 | Overcast | OVC002 | 21.2 | 19.4 | 93% | 30.27 | 0.0 | |||||||
| 01 | 00:55 | E 24 | 0.00 | Overcast and Breezy | OVC002 | 21.2 | 19.4 | 93% | 5 | 30.27 | 0.0 | ||||||
| 01 | 00:35 | Calm | 0.00 | Overcast | OVC002 | 21.2 | 21.2 | 100% | 30.27 | 0.0 | |||||||
| 01 | 00:15 | Calm | 0.00 | Overcast | OVC002 | 21.2 | 21.2 | 100% | 30.27 | 0.0 | |||||||
| 30 | 23:55 | Calm | 0.00 | Overcast | OVC002 | 21.2 | 21.2 | 100% | 30.27 | 0.0 | |||||||
| 30 | 23:35 | Calm | 0.00 | Overcast | OVC002 | 21.2 | 21.2 | 100% | 30.27 | 0.0 | |||||||
| 30 | 23:15 | E 23 G 32 | 0.00 | Overcast and Breezy | OVC002 | 21.2 | 21.2 | 100% | 6 | 30.27 | 0.0 | ||||||
| 30 | 22:55 | E 22 G 25 | 0.00 | Overcast and Breezy | OVC002 | 21.2 | 21.2 | 100% | 6 | 30.28 | 0.0 | ||||||
| 30 | 22:35 | E 25 G 30 | 0.00 | Overcast and Breezy | OVC002 | 23 | 21.2 | 93% | 8 | 30.27 | 0.0 | ||||||
| 30 | 22:15 | E 23 | 0.00 | Overcast and Breezy | OVC002 | 23 | 21.2 | 93% | 8 | 30.28 | 0.0 | ||||||
| 30 | 21:55 | E 21 G 36 | 0.00 | Overcast and Breezy | OVC002 | 23 | 21.2 | 93% | 9 | 30.28 | 0.0 | ||||||
| 30 | 21:35 | Calm | 0.00 | Overcast | OVC002 | 23 | 21.2 | 93% | 30.26 | 0.0 | |||||||
| 30 | 21:15 | Calm | 0.00 | Overcast | OVC002 | 21.2 | 21.2 | 100% | 30.26 | 0.0 | |||||||
| 30 | 20:55 | Calm | 0.00 | Overcast | OVC002 | 23 | 21.2 | 93% | 30.24 | 0.0 | |||||||
| 30 | 20:35 | Calm | 0.00 | Overcast | OVC002 | 23 | 21.2 | 93% | 30.25 | 0.0 | |||||||
| 30 | 20:15 | Calm | 0.00 | Overcast | OVC002 | 23 | 23 | 100% | 30.25 | 0.0 | |||||||
| 30 | 19:55 | Calm | 0.00 | Overcast | OVC002 | 23 | 23 | 100% | 30.24 | 0.0 | |||||||
| 30 | 19:35 | Calm | 0.00 | Overcast | OVC002 | 23 | 23 | 100% | 30.23 | 0.0 | |||||||
| 30 | 19:15 | Calm | 0.00 | Overcast | OVC002 | 23 | 23 | 100% | 30.23 | 0.0 | |||||||
| 30 | 18:55 | Calm | 0.00 | Overcast | OVC002 | 23 | 23 | 100% | 30.22 | 0.0 | |||||||
| 30 | 18:35 | Calm | 0.00 | Overcast | OVC002 | 24.8 | 23 | 93% | 30.23 | 0.0 | |||||||
| 30 | 18:15 | Calm | 0.00 | Overcast | OVC002 | 23 | 23 | 100% | 30.23 | 0.0 | |||||||
| 30 | 17:55 | Calm | 0.00 | Overcast | OVC002 | 23 | 23 | 100% | 30.22 | 0.0 | |||||||
| 30 | 17:35 | Calm | 0.00 | Overcast | OVC002 | 23 | 23 | 100% | 30.21 | 0.0 | |||||||
| 30 | 17:15 | Calm | 0.00 | Overcast | OVC002 | 24.8 | 24.8 | 100% | 30.2 | 0.0 | |||||||
| 30 | 16:55 | Calm | 0.15 | Light Snow | OVC002 | 24.8 | 24.8 | 100% | 30.22 | 0.0 | |||||||
| 30 | 16:35 | Calm | 0.15 | Freezing Fog | OVC002 | 26.6 | 24.8 | 93% | 30.22 | 0.0 | |||||||
| 30 | 16:15 | Calm | 0.15 | Freezing Fog | OVC002 | 26.6 | 26.6 | 100% | 30.23 | 0.0 | |||||||
| 30 | 15:55 | E 16 | 0.15 | Freezing Fog | OVC002 | 26.6 | 26.6 | 100% | 15 | 30.22 | 0.0 | ||||||
| 30 | 15:35 | E 12 | 0.15 | Freezing Fog | OVC002 | 26.6 | 26.6 | 100% | 17 | 30.23 | 0.0 | ||||||
| 30 | 15:15 | E 16 | 0.15 | Freezing Fog | OVC002 | 26.6 | 26.6 | 100% | 15 | 30.23 | 0.0 | ||||||
| 30 | 14:55 | E 10 | 0.15 | Freezing Fog | OVC002 | 28.4 | 28.4 | 100% | 20 | 30.24 | 0.0 | ||||||
| 30 | 14:35 | SE 5 | 0.15 | Freezing Fog | OVC002 | 28.4 | 28.4 | 100% | 24 | 30.24 | 0.0 | ||||||
| 30 | 14:15 | Calm | 0.50 | Freezing Fog | BKN002 BKN020 OVC033 | 28.4 | 28.4 | 100% | 30.24 | 0.0 | |||||||
| 30 | 13:55 | NE 5 | 0.15 | Freezing Fog | OVC002 | 28.4 | 28.4 | 100% | 24 | 30.24 | 0.0 | ||||||
| 30 | 13:35 | N 7 | 7.00 | Light Snow | BKN004 BKN010 BKN022 | 30.2 | 30.2 | 100% | 24 | 30.24 | 0.0 | ||||||
| 30 | 13:15 | W 13 G 18 | 2.00 | Light Snow | OVC004 | 28.4 | 28.4 | 100% | 19 | 30.25 | 0.0 | ||||||
| 30 | 12:55 | W 16 G 20 | 1.25 | Light Snow | SCT004 BKN016 OVC022 | 26.6 | 26.6 | 100% | 15 | 30.25 | 0.0 | ||||||
| 30 | 12:35 | NW 12 | 10.00 | Overcast | SCT018 BKN024 OVC041 | 28.4 | 28.4 | 100% | 19 | 30.25 | 0.0 | ||||||
| 30 | 12:15 | N 5 | 10.00 | Overcast | SCT011 BKN024 OVC050 | 28.4 | 28.4 | 100% | 24 | 30.26 | 0.0 | ||||||
| 30 | 11:55 | NE 13 G 18 | 1.25 | Light Snow | BKN001 OVC008 | 28.4 | 28.4 | 100% | 19 | 30.26 | 0.0 | ||||||
| 30 | 11:35 | Calm | 0.15 | Freezing Fog | OVC001 | 26.6 | 26.6 | 100% | 30.26 | 0.0 | |||||||
| 30 | 11:15 | E 12 | 0.15 | Freezing Fog | OVC001 | 26.6 | 26.6 | 100% | 17 | 30.25 | 0.0 | ||||||
| 30 | 10:55 | Calm | 0.15 | Light Snow | OVC001 | 26.6 | 24.8 | 93% | 30.25 | 0.0 | |||||||
| 30 | 10:35 | E 8 | 0.15 | Freezing Fog | OVC001 | 26.6 | 26.6 | 100% | 19 | 30.26 | 0.0 | ||||||
| 30 | 10:15 | E 7 | 0.00 | Overcast | OVC001 | 26.6 | 26.6 | 100% | 20 | 30.25 | 0.0 | ||||||
| 30 | 09:55 | Calm | 0.00 | Overcast | OVC001 | 26.6 | 26.6 | 100% | 30.25 | 0.0 | |||||||
| 30 | 09:35 | Calm | 0.00 | Overcast | OVC001 | 24.8 | 24.8 | 100% | 30.25 | 0.0 | |||||||
| 30 | 09:15 | Calm | 0.00 | Overcast | OVC001 | 24.8 | 24.8 | 100% | 30.25 | 0.0 | |||||||
| 30 | 08:55 | E 16 | 0.00 | Overcast | OVC001 | 24.8 | 24.8 | 100% | 13 | 30.26 | 0.0 | ||||||
| 30 | 08:35 | E 12 | 0.00 | Overcast | BKN001 OVC006 | 24.8 | 24.8 | 100% | 15 | 30.26 | 0.0 | ||||||
| 30 | 08:15 | SE 7 | 0.00 | Overcast | BKN001 OVC007 | 24.8 | 24.8 | 100% | 18 | 30.27 | 0.0 | ||||||
| 30 | 07:55 | E 8 | 0.00 | Overcast | OVC001 | 23 | 23 | 100% | 15 | 30.28 | 0.0 | ||||||
| 30 | 07:35 | E 9 | 0.00 | Overcast | OVC001 | 23 | 23 | 100% | 14 | 30.27 | 0.0 | ||||||
| 30 | 07:15 | E 14 | 0.00 | Overcast | OVC001 | 23 | 23 | 100% | 11 | 30.26 | 0.0 | ||||||
| 30 | 06:35 | E 13 | 0.15 | Light Snow | OVC001 | 23 | 23 | 100% | 12 | 30.25 | 0.0 | ||||||
| 30 | 06:15 | E 12 | 0.15 | Freezing Fog | OVC001 | 23 | 23 | 100% | 13 | 30.25 | 0.0 | ||||||
| 30 | 05:55 | E 10 | 0.15 | Freezing Fog | OVC001 | 23 | 23 | 100% | 13 | 30.25 | 0.0 | ||||||
| 30 | 05:35 | E 10 | 0.15 | Freezing Fog | OVC001 | 23 | 23 | 100% | 13 | 30.26 | 0.0 | ||||||
| 30 | 05:15 | E 8 | 0.25 | Freezing Fog | OVC001 | 23 | 23 | 100% | 15 | 30.26 | 0.0 | ||||||
| 30 | 04:55 | E 8 | 0.25 | Freezing Fog | OVC001 | 23 | 23 | 100% | 15 | 30.27 | 0.0 | ||||||
| 30 | 04:35 | E 7 | 0.50 | Freezing Fog | OVC001 | 23 | 23 | 100% | 16 | 30.27 | 0.0 | ||||||
| 30 | 04:15 | E 12 | 0.15 | Freezing Fog | OVC001 | 23 | 23 | 100% | 13 | 30.27 | 0.0 | ||||||
| 30 | 03:55 | E 10 | 0.15 | Freezing Fog | OVC001 | 23 | 23 | 100% | 13 | 30.27 | 0.0 | ||||||
| 30 | 03:35 | E 6 | 10.00 | Fair | CLR | 23 | 21.2 | 93% | 17 | 30.28 | 0.0 | ||||||
| 30 | 03:15 | NE 5 | 10.00 | Partly Cloudy | SCT050 SCT075 SCT080 | 23 | 23 | 100% | 18 | 30.28 | 0.0 | ||||||
| 30 | 02:55 | NW 6 | 10.00 | Overcast | SCT009 BKN060 OVC075 | 23 | 23 | 100% | 17 | 30.29 | 0.0 | ||||||
| 30 | 02:35 | NW 7 | 3.00 | Light Snow | BKN009 BKN016 OVC044 | 24.8 | 24.8 | 100% | 18 | 30.3 | 0.0 | ||||||
| 30 | 02:15 | NW 7 | 7.00 | Light Snow | SCT011 BKN029 OVC085 | 24.8 | 24.8 | 100% | 18 | 30.3 | 0.0 | ||||||
| 30 | 01:55 | NW 6 | 10.00 | Light Snow | SCT015 BKN033 OVC060 | 24.8 | 24.8 | 100% | 19 | 30.3 | 0.0 | ||||||
| 30 | 01:35 | N 5 | 7.00 | Light Snow | SCT015 BKN032 OVC047 | 24.8 | 24.8 | 100% | 20 | 30.31 | 0.0 | ||||||
| 30 | 01:15 | N 6 | 10.00 | Overcast | SCT001 BKN049 OVC075 | 24.8 | 24.8 | 100% | 19 | 30.31 | 0.0 | ||||||
| 30 | 00:55 | N 3 | 0.25 | Light Snow | OVC001 | 26.6 | 26.6 | 100% | 30.31 | 0.0 | |||||||
| 30 | 00:35 | NE 5 | 0.15 | Light Snow | OVC001 | 26.6 | 26.6 | 100% | 22 | 30.31 | 0.0 | ||||||
| 30 | 00:15 | NE 6 | 0.25 | Light Snow | OVC001 | 26.6 | 26.6 | 100% | 21 | 30.31 | 0.0 | ||||||
| 29 | 23:55 | E 5 | 0.50 | Light Snow | BKN003 OVC014 | 26.6 | 26.6 | 100% | 22 | 30.32 | 0.0 | ||||||
| 29 | 23:35 | N 5 | 0.50 | Light Snow | BKN002 OVC008 | 26.6 | 26.6 | 100% | 22 | 30.33 | 0.0 | ||||||
| Date | Time (mdt) | Wind (mph) | Vis. (mi.) | Weather | Sky Cond. | Air | Dwpt | Max. | Min. | Relative Humidity | Wind Chill (°F) | Heat Index (°F) | altimeter (in) | sea level (mb) | 1 hr | 3 hr | 6 hr |
| 6 hour | |||||||||||||||||
| Temperature (ºF) | Pressure | Precipitation (in) | |||||||||||||||